Theta_e
325 323 322 323 326 326 325 325 326 326 327 327 327 325 323 323 324 325 322 322 322 321 321 321 320 321 321
325 327 327 328 327 327 327 326 327 327 328 327 327 326 322 321 320 325 323 322 321 321 321 320 320 320 320
324 326 326 327 327 328 327 325 327 327 326 327 327 327 326 325 324 325 323 322 321 321 320 320 320 319 319
324 325 326 326 327 326 324 326 326 326 326 326 326 326 326 325 324 323 322 322 321 320 320 320 317 315 314
323 321 323 325 325 324 325 325 325 325 325 324 323 323 323 323 323 322 322 321 321 319 315 313 312 311 310
321 320 323 322 325 324 325 325 323 323 321 323 323 323 322 321 321 321 320 318 315 311 309 309 309 308 308
322 322 322 324 323 325 324 324 323 322 321 320 321 321 319 319 319 317 313 311 310 310 309 308 308 308 308
323 323 322 324 324 323 323 321 321 319 319 318 317 317 315 314 312 311 310 310 309 309 308 308 307 307 306
321 320 319 320 320 319 319 320 318 315 316 316 314 312 311 311 311 310 310 309 309 309 308 307 307 306 306
317 312 313 313 315 314 314 315 315 312 311 310 310 308 306 305 304 304 305 305 305 306 306 306 306 306 305
312 312 312 311 309 310 309 308 307 307 305 304 303 301 301 302 302 302 302 301 302 303 303 303 303 303 303
305 303 301 298 297 297 297 297 297 298 298 299 300 299 297 297 297 297 296 296 296 297 297 299 300 300 300
296 295 294 294 293 293 293 293 293 293 293 294 294 294 293 294 295 294 293 293 294 295 296 296 298 299 298
292 292 291 291 291 291 291 292 292 292 293 293 293 293 294 294 293 292 292 293 293 294 294 295 296 297 297
290 290 290 290 290 290 290 290 290 290 290 291 291 291 291 291 292 292 292 291 292 293 293 293 294 295 295
288 288 288 287 288 288 288 288 288 288 288 288 288 288 289 289 289 289 290 291 291 291 292 292 293 294 294
287 287 287 287 286 286 286 286 286 286 286 286 286 286 287 288 288 288 288 289 289 289 290 290 292 293 293
Wind_Speed
39 42 37 39 37 34 30 31 40 37 35 41 43 43 37 39 38 39 34 34 32 31 31 34 31 26 26
33 39 39 41 38 36 33 31 40 38 38 43 41 42 44 45 47 45 37 34 31 32 34 31 29 29 28
38 37 41 39 34 35 32 33 34 37 39 35 37 40 41 38 41 39 35 31 30 31 27 27 29 27 26
36 36 36 33 31 35 35 32 33 32 33 33 34 36 37 38 36 29 28 29 27 27 26 26 26 25 26
36 36 36 36 38 34 34 33 33 29 30 31 25 24 24 25 27 27 26 24 24 23 23 24 23 22 22
38 38 34 38 40 34 35 30 31 27 26 23 22 22 22 23 22 21 20 21 21 20 19 19 20 21 22
36 39 38 41 37 33 32 33 31 24 22 19 18 17 18 18 18 17 17 18 17 17 17 18 19 20 20
40 44 35 45 36 30 26 27 20 18 19 14 14 13 13 13 14 15 16 17 17 18 18 19 19 20 19
21 23 21 17 19 19 20 20 19 15 13 12 12 12 13 13 15 16 18 19 20 20 20 21 19 19 18
8 12 14 14 14 13 13 12 12 10 9 9 9 11 8 11 11 11 12 12 13 15 17 19 20 20 21
9 5 2 0 2 4 5 7 9 8 9 10 9 10 10 6 9 10 12 15 18 20 22 22 24 24 23
2 3 3 5 5 5 5 6 6 7 8 10 13 13 11 12 14 15 15 18 19 22 23 24 23 21 21
6 6 6 5 4 3 3 3 4 6 8 10 13 13 11 11 14 17 20 18 19 22 24 23 23 21 22
6 5 4 3 2 2 3 3 4 7 9 11 12 13 12 14 18 20 20 17 16 21 21 21 22 22 22
2 1 0 1 2 3 4 5 5 6 9 12 14 15 16 18 21 22 23 23 22 23 23 25 25 25 26
1 1 2 2 3 4 5 6 7 8 10 11 12 14 15 17 18 17 18 19 21 23 23 25 29 27 24
1 2 3 5 7 8 9 9 9 11 11 12 12 12 12 14 16 17 18 18 20 21 23 24 27 31 26
Wind_Direction
250 263 260 255 257 260 254 260 252 259 253 253 255 250 244 243 243 245 251 259 255 264 271 277 276 268 274
251 252 257 253 256 254 257 266 260 256 261 254 255 249 249 249 249 247 252 253 255 265 271 272 267 268 269
253 249 255 254 255 255 255 262 262 264 264 257 249 247 242 247 243 242 240 246 258 269 262 265 267 267 267
247 245 248 246 247 257 257 254 261 260 258 251 253 249 243 232 226 229 237 249 259 263 264 266 267 267 265
244 250 253 245 251 253 255 259 256 258 259 258 228 215 212 222 226 236 247 252 258 260 262 263 263 266 263
249 250 245 254 248 253 252 258 242 245 229 217 218 218 232 238 238 239 242 247 253 257 259 264 266 267 270
252 248 252 244 245 252 256 248 235 219 206 204 206 211 218 225 234 240 243 246 247 253 261 263 267 269 270
247 250 251 246 251 250 238 221 211 197 193 185 198 206 216 224 232 238 244 251 254 257 258 261 264 268 271
241 222 219 200 205 195 179 185 174 179 189 197 196 206 220 233 243 250 256 257 259 259 256 255 258 261 264
171 135 134 143 155 159 163 177 183 181 204 216 216 218 231 236 236 241 244 246 254 254 252 253 255 258 266
139 121 108 166 170 181 199 204 205 199 195 213 227 218 212 193 210 228 247 259 258 259 262 265 267 266 265
128 137 168 173 168 164 180 198 212 224 226 236 240 239 235 243 250 254 254 263 266 264 265 264 266 267 274
168 159 159 161 155 153 165 193 210 228 235 240 251 259 263 260 273 282 289 285 273 270 269 267 268 268 276
146 141 138 143 163 198 218 225 231 240 244 250 253 258 263 266 273 279 281 280 270 279 282 271 262 260 262
132 145 151 315 302 298 296 292 277 265 266 267 270 272 271 270 271 274 280 277 275 282 280 277 269 268 271
108 36 357 331 318 316 313 308 299 286 279 278 279 281 283 279 281 287 280 275 276 277 278 280 278 275 271
259 303 317 316 319 321 318 313 306 301 299 304 306 304 303 291 286 295 288 284 288 283 281 276 271 273 273